Miscellaneous Local Product
Issued by NWS North Platte, NE

Home | Current Version | Previous Version | Text Only | Print | Product List | Glossary On
Versions: 1 2 3 4 5 6 7 8 9 10 11 12 13 14 15 16 17 18 19 20 21 22 23 24 25 26 27 28 29 30 31 32 33 34 35 36 37 38 39 40 41 42 43 44 45 46 47 48 49 50
000
AXUS43 KLBF 301410
MISLBF


WESTERN AND NORTH CENTRAL NEBRASKA HOURLY WEATHER ROUNDUP
NATIONAL WEATHER SERVICE NORTH PLATTE NE
900 AM CDT MON MAR 30 2015

***STATIONS NOT REPORTING VARIABLES SUCH AS SKY/WEATHER OR
PRESSURE ARE PROVIDED BY THE NEBRASKA DEPARTMENT OF
ROADS...RAWS...AND APRS NETWORKS...AND ARE NOT UNDER
NATIONAL WEATHER SERVICE QUALITY CONTROL***

...OBSERVATIONS IN AND NEAR THE EASTERN PANHANDLE OF NEBRASKA...

CITY           SKY/WX    TMP DP  RH WIND       PRES   REMARKS
PINE RIDGE     SUNNY     35  25  66 CALM      30.05R
CHADRON        SUNNY     44  29  55 SW6       30.06R
ALLIANCE       SUNNY     37  27  67 W7        30.07R WCI  32
SIDNEY         SUNNY     48  21  34 NW17      30.09R
WHITECLAY        N/A     35  23  61 CALM        N/A
CRESCENT LAKE    N/A     43  25  49 NW10        N/A
BIG SPRINGS      N/A     37  24  60 W5          N/A  WCI  33
$$

...OBSERVATIONS IN NORTH CENTRAL NEBRASKA...

CITY           SKY/WX    TMP DP  RH WIND       PRES   REMARKS
VALENTINE      SUNNY     46  23  40 W14       30.00S
THEDFORD       SUNNY     48  24  39 W7        30.04R
AINSWORTH      SUNNY     49  23  36 SW12      30.00S
O`NEILL        SUNNY     52  21  29 SW15G23   29.99F
ORD            SUNNY     48  16  27 SW9       30.04F
BROKEN BOW     SUNNY     51  19  28 SW13      30.05S
BROWNLEE         N/A     46  26  45 SW9         N/A
SPRINGVIEW       N/A     47  27  46 W3          N/A
BREWSTER         N/A     49  21  33 W14         N/A
ROSE             N/A     47  24  39 S10         N/A
NEWPORT          N/A     51  24  34 SW20        N/A
SARGENT          N/A     47  22  36 CALM        N/A
COMSTOCK         N/A     53  13  20 SW14        N/A
EWING            N/A     50  24  36 SW8         N/A
$$

...OBSERVATIONS IN SOUTHWEST NEBRASKA AND FAR NORTHEAST COLORADO...

CITY           SKY/WX    TMP DP  RH WIND       PRES   REMARKS
WRAY           FAIR      46  28  49 W12G17    30.09S
IMPERIAL         N/A     41  25  53 SW3       30.08S
OGALLALA       SUNNY     37  25  62 CALM      30.06S
NORTH PLATTE   SUNNY     45  24  43 S9        30.05F
MCCOOK         SUNNY     48  23  37 SW8       30.10S
LEXINGTON      SUNNY     51  18  27 SW12      30.09S
PAXTON           N/A     37  24  60 W3          N/A
SUTHERLAND       N/A     39  24  56 W7          N/A  WCI  34
BRADY            N/A     45  22  40 CALM        N/A
GOTHENBURG       N/A     47  17  29 W5          N/A
CALLAWAY         N/A     45  20  37 SW15        N/A
$$

...NORTH PLATTE AREA...

CITY           SKY/WX    TMP DP  RH WIND       PRES   REMARKS
AIRPORT        SUNNY     45  24  43 S9        30.05F
DOWNTOWN         N/A     47  25  42 SW6G14      N/A
$$

...SOME WEATHER OBSERVATIONS FROM AROUND THE REGION...

CITY           SKY/WX    TMP DP  RH WIND       PRES   REMARKS
DENVER         SUNNY     48  28  46 W3        30.16R
LARAMIE        MOSUNNY   42  15  33 W6        30.21S
CHEYENNE       SUNNY     47  16  29 W13       30.17R
SCOTTSBLUFF    SUNNY     39  26  59 W10       30.10R WCI  32
RAPID CITY     PTSUNNY   51  25  36 NW10      30.02R
PIERRE         CLOUDY    41  30  65 W8        29.92S
WINNER         FAIR      51  24  34 W6        29.95F
SIOUX FALLS    PTSUNNY   47  24  40 SW9       29.95F
OMAHA          MOSUNNY   45  29  53 S8        30.10F
GRAND ISLAND   SUNNY     50  22  33 SW18      30.09F
KANSAS CITY    CLOUDY    44  37  76 S6        30.18S
WICHITA        MOSUNNY   47  37  68 CALM      30.19F
HAYS           SUNNY     45  27  49 S12       30.15F
LIBERAL        SUNNY     50  34  53 SW13      30.20F
GOODLAND       SUNNY     47  27  45 S12       30.11S
$$



USA.gov is the U.S. government's official web portal to all federal, state and local government web resources and services.